Location: Newark
(43.0000°N, 1.6781°W)
Time: 09:47:00
(UTC+00:00)

Explorer 7 - Pass Details

Date: 26 April 2021
Orbit: 484 x 677 km, 50.3° (Epoch: 07 May)

Event Time Altitude Azimuth Distance (km) Brightness Sun altitude
Rises 17:37:42 0° 233° (SW) 2,552 11.0 14.2°
Reaches altitude 10° 17:39:50 10° 232° (SW) 1,688 10.1 13.8°
Maximum altitude 17:43:38 76° 147° (SSE) 530 6.9 13.1°
Drops below altitude 10° 17:47:39 10° 62° (ENE) 1,779 9.0 12.4°
Sets 17:49:57 0° 61° (ENE) 2,705 9.9 12.0°
